DW2047 Weather Reports


time (UTC)temp
C
wind
direction
speed
KPH
gust
KPH
rain 1hr
cm
rain 24hr
cm
rain mn
cm
humidity
%
barometer
mb
20220629041555 23 78 0.0 0.0 0.00 0.00 0.10 76 1019.5
20220629041105 23 78 0.0 0.0 0.00 0.00 0.10 76 1019.5
20220629040508 23 78 0.0 0.0 0.00 0.00 0.10 76 1019.6
20220629040056 23 78 0.0 0.0 0.00 0.00 0.10 76 1019.5
20220629035603 23 78 0.0 0.0 0.00 0.00 0.10 75 1019.5
20220629035003 23 78 0.0 0.0 0.00 0.00 0.10 75 1019.5
20220629034603 23 78 0.0 0.0 0.00 0.00 0.10 74 1019.5
20220629034002 23 78 0.0 0.0 0.00 0.00 0.10 73 1019.4
20220629033554 23 78 0.0 0.0 0.00 0.00 0.10 72 1019.4
20220629033106 24 78 0.0 0.0 0.00 0.00 0.10 72 1019.3
20220629032502 24 78 0.0 0.0 0.00 0.00 0.10 71 1019.2
20220629032055 24 78 0.0 0.0 0.00 0.00 0.10 71 1019.1
20220629031607 25 78 0.0 0.0 0.00 0.00 0.10 69 1019.0
20220629031050 25 78 0.0 0.0 0.00 0.00 0.10 69 1018.9
20220629030555 25 78 0.0 0.0 0.00 0.00 0.10 68 1018.9
20220629030059 25 78 0.0 0.0 0.00 0.00 0.10 66 1018.8
20220629025607 25 78 0.0 0.0 0.00 0.00 0.10 65 1018.7
20220629025009 25 78 0.0 0.0 0.00 0.00 0.10 63 1018.6
20220629024601 26 78 0.0 0.0 0.00 0.00 0.10 62 1018.6
20220629024009 26 78 0.0 0.0 0.00 0.00 0.10 60 1018.7
20220629023509 26 78 0.0 0.0 0.00 0.00 0.10 58 1018.6
20220629023106 26 78 0.0 0.0 0.00 0.00 0.10 56 1018.6
20220629022509 26 78 0.0 0.0 0.00 0.00 0.10 56 1018.6
20220629022105 26 78 0.0 0.0 0.00 0.00 0.10 55 1018.6
20220629021609 27 78 0.0 0.0 0.00 0.00 0.10 55 1018.7
20220629021007 27 78 0.0 0.0 0.00 0.00 0.10 54 1018.6
20220629020509 27 78 0.0 0.0 0.00 0.00 0.10 53 1018.7
20220629020016 27 78 0.0 0.0 0.00 0.00 0.10 52 1018.6
20220629015605 28 78 0.0 0.0 0.00 0.00 0.10 52 1018.6
20220629015005 28 78 0.0 0.0 0.00 0.00 0.10 52 1018.6
20220629014512 28 78 0.0 0.0 0.00 0.00 0.10 51 1018.6
20220629014010 28 78 0.0 0.0 0.00 0.00 0.10 49 1018.7
20220629013522 28 78 0.0 0.0 0.00 0.00 0.10 50 1018.7
20220629013023 29 78 0.0 0.0 0.00 0.00 0.10 50 1018.6
20220629012537 29 78 0.0 0.0 0.00 0.00 0.10 49 1018.6
20220629012033 30 78 0.0 0.0 0.00 0.00 0.10 48 1018.7
20220629011539 30 78 1.6 0.0 0.00 0.00 0.10 47 1018.7
20220629011045 30 78 1.6 0.0 0.00 0.00 0.10 47 1018.6
20220629010551 30 82 1.6 0.0 0.00 0.00 0.10 47 1018.6
20220629010053 30 52 1.6 0.0 0.00 0.00 0.10 48 1018.6
20220629005602 30 43 1.6 0.0 0.00 0.00 0.10 47 1018.6
20220629005009 30 63 1.6 0.0 0.00 0.00 0.10 49 1018.4
20220629004558 30 61 1.6 0.0 0.00 0.00 0.10 49 1018.4
20220629004104 30 72 1.6 0.0 0.00 0.00 0.10 49 1018.3
20220629003508 30 24 1.6 0.0 0.00 0.00 0.10 49 1018.2
20220629003102 30 53 3.2 0.0 0.00 0.00 0.10 49 1018.3
20220629002503 30 44 3.2 0.0 0.00 0.00 0.10 50 1018.2
20220629002010 30 65 1.6 0.0 0.00 0.00 0.10 52 1018.3
20220629001514 30 42 1.6 0.0 0.00 0.00 0.10 51 1018.3
20220629001001 30 24 1.6 0.0 0.00 0.00 0.10 53 1018.1
20220629000556 30 10 3.2 0.0 0.00 0.00 0.10 52 1018.2
20220629000101 30 43 3.2 0.0 0.00 0.00 0.10 52 1018.2
20220628235510 30 21 3.2 0.0 0.00 0.00 0.10 52 1018.1
20220628235000 30 320 1.6 0.0 0.00 0.00 0.10 53 1018.2
20220628234503 30 42 3.2 0.0 0.00 0.00 0.10 52 1018.1
20220628234010 30 44 3.2 0.0 0.00 0.00 0.10 52 1018.1
20220628233601 30 36 3.2 0.0 0.00 0.00 0.10 52 1018.1
20220628233109 30 340 3.2 0.0 0.00 0.00 0.10 53 1018.0
20220628232506 30 355 1.6 0.0 0.00 0.00 0.10 53 1018.0
20220628232002 30 349 3.2 0.0 0.00 0.00 0.10 52 1018.0
20220628231506 30 40 4.8 0.0 0.00 0.00 0.10 52 1018.1
20220628231010 31 67 4.8 0.0 0.00 0.00 0.10 52 1018.1
20220628230604 31 36 3.2 0.0 0.00 0.00 0.10 52 1018.0
20220628230104 31 55 3.2 0.0 0.00 0.00 0.10 52 1018.2
20220628225504 31 5 3.2 0.0 0.00 0.00 0.10 52 1018.3
20220628225008 31 342 4.8 0.0 0.00 0.00 0.10 52 1018.3
20220628224605 31 335 6.4 0.0 0.00 0.00 0.10 52 1018.3
20220628224011 31 9 4.8 0.0 0.00 0.00 0.10 53 1018.4
20220628223503 31 326 4.8 0.0 0.00 0.00 0.10 53 1018.4
20220628223010 31 36 6.4 0.0 0.00 0.00 0.10 54 1018.4
20220628222603 31 87 6.4 0.0 0.00 0.00 0.10 53 1018.3
20220628222007 30 15 8.0 0.0 0.00 0.00 0.10 54 1018.4
20220628221601 30 30 8.0 0.0 0.00 0.00 0.10 54 1018.5
20220628221003 30 41 4.8 0.0 0.00 0.00 0.10 54 1018.5
20220628220506 30 338 6.4 0.0 0.00 0.00 0.10 55 1018.4
20220628220007 30 327 4.8 0.0 0.00 0.00 0.10 58 1018.4
20220628215505 30 331 3.2 0.0 0.00 0.00 0.10 59 1018.5
20220628215015 30 5 4.8 0.0 0.00 0.00 0.10 60 1018.5
20220628214604 30 318 4.8 0.0 0.00 0.00 0.10 59 1018.6
20220628214006 30 336 4.8 0.0 0.00 0.00 0.10 58 1018.6
20220628213513 30 325 4.8 0.0 0.00 0.00 0.10 59 1018.7
20220628213106 30 57 4.8 0.0 0.00 0.00 0.10 60 1018.7
20220628212507 30 346 4.8 0.0 0.00 0.00 0.10 59 1018.7
20220628212100 31 36 4.8 0.0 0.00 0.00 0.10 59 1018.7
20220628211608 31 5 4.8 0.0 0.00 0.00 0.10 59 1018.8
20220628211108 31 11 4.8 0.0 0.00 0.00 0.10 60 1018.9
20220628210557 31 315 6.4 0.0 0.00 0.00 0.10 60 1019.0
20220628210044 31 333 8.0 0.0 0.00 0.00 0.10 59 1019.2
20220628205551 31 304 6.4 0.0 0.00 0.00 0.10 59 1019.3
20220628205052 31 360 4.8 0.0 0.00 0.00 0.10 60 1019.5
20220628204559 31 27 4.8 0.0 0.00 0.00 0.10 61 1019.5
20220628204106 31 9 4.8 0.0 0.00 0.00 0.10 62 1019.6
20220628203552 31 326 3.2 0.0 0.00 0.00 0.10 60 1019.7
20220628203040 31 80 4.8 0.0 0.00 0.00 0.10 61 1019.7
20220628202548 31 13 4.8 0.0 0.00 0.00 0.10 60 1019.7
20220628202050 31 58 4.8 0.0 0.00 0.00 0.10 60 1019.7
20220628201553 31 355 6.4 0.0 0.00 0.00 0.10 61 1019.7
20220628201055 31 26 6.4 0.0 0.00 0.00 0.10 62 1019.7
20220628200559 31 15 4.8 0.0 0.00 0.00 0.10 62 1019.9
20220628200105 31 57 6.4 0.0 0.00 0.00 0.10 65 1019.9
20220628195505 31 68 6.4 0.0 0.00 0.00 0.10 65 1020.1
20220628195012 31 331 4.8 0.0 0.00 0.00 0.10 64 1020.3
20220628194602 30 355 4.8 0.0 0.00 0.00 0.10 65 1020.3
20220628194002 30 32 4.8 0.0 0.00 0.00 0.10 64 1020.3
20220628193510 31 10 4.8 0.0 0.00 0.00 0.10 63 1020.3
20220628193102 31 17 4.8 0.0 0.00 0.00 0.10 63 1020.3
20220628192501 31 333 3.2 0.0 0.00 0.00 0.10 65 1020.3
20220628192004 31 9 4.8 0.0 0.00 0.00 0.10 63 1020.3
20220628191511 31 42 4.8 0.0 0.00 0.00 0.10 63 1020.4
20220628191017 31 92 4.8 0.0 0.00 0.00 0.10 63 1020.4
20220628190501 31 48 4.8 0.0 0.00 0.00 0.10 66 1020.5
20220628190020 31 53 4.8 0.0 0.00 0.00 0.10 66 1020.6
20220628185516 30 15 3.2 0.0 0.00 0.00 0.10 66 1020.7
20220628185102 30 51 4.8 0.0 0.00 0.00 0.10 69 1020.9
20220628184601 30 84 4.8 0.0 0.00 0.00 0.10 68 1021.0
20220628184106 30 78 6.4 0.0 0.00 0.00 0.10 68 1021.1
20220628183503 30 63 4.8 0.0 0.00 0.00 0.10 68 1021.3
20220628183010 29 89 4.8 0.0 0.00 0.00 0.10 69 1021.3
20220628182518 29 88 4.8 0.0 0.00 0.00 0.10 72 1021.5
20220628182015 28 63 3.2 0.0 0.00 0.00 0.10 72 1021.5
20220628181603 28 45 3.2 0.0 0.00 0.00 0.10 72 1021.5
20220628181009 28 65 3.2 0.0 0.00 0.00 0.10 73 1021.6
20220628180601 28 41 3.2 0.0 0.00 0.00 0.10 72 1021.6
20220628180018 28 101 3.2 0.0 0.00 0.00 0.10 73 1021.7
20220628175505 28 61 1.6 0.0 0.00 0.00 0.10 74 1021.6
20220628175008 28 41 1.6 0.0 0.00 0.00 0.10 74 1021.6
20220628174512 28 22 1.6 0.0 0.00 0.00 0.10 74 1021.6
20220628174015 28 72 1.6 0.0 0.00 0.00 0.10 74 1021.6
20220628173502 27 44 1.6 0.0 0.00 0.00 0.10 76 1021.7
20220628173011 27 337 1.6 0.0 0.00 0.00 0.10 76 1021.7
20220628172513 27 340 1.6 0.0 0.00 0.00 0.10 77 1021.8
20220628172103 27 343 1.6 0.0 0.00 0.00 0.10 77 1021.9
20220628171502 27 344 3.2 0.0 0.00 0.00 0.10 77 1021.9
20220628171008 27 52 3.2 0.0 0.00 0.00 0.10 79 1022.0
20220628170604 27 55 3.2 0.0 0.00 0.00 0.10 79 1022.0
20220628170112 26 50 1.6 0.0 0.00 0.00 0.10 80 1022.0
20220628165609 26 327 1.6 0.0 0.00 0.00 0.10 80 1022.0
20220628165007 26 57 3.2 0.0 0.00 0.00 0.10 80 1022.0
20220628164517 26 73 1.6 0.0 0.00 0.00 0.10 81 1022.1
20220628164006 26 46 3.2 0.0 0.00 0.00 0.10 81 1022.1
20220628163514 26 71 3.2 0.0 0.00 0.00 0.10 80 1022.1
20220628163002 26 63 3.2 0.0 0.00 0.00 0.10 81 1022.1
20220628162511 26 91 3.2 0.0 0.00 0.00 0.10 81 1022.1
20220628162106 26 59 3.2 0.0 0.00 0.00 0.10 80 1022.0
20220628161503 26 65 3.2 0.0 0.00 0.00 0.10 80 1022.0
20220628161007 26 355 3.2 0.0 0.00 0.00 0.10 81 1021.9
20220628160509 26 26 3.2 0.0 0.00 0.00 0.10 81 1021.9
20220628160016 26 51 3.2 0.0 0.00 0.00 0.10 81 1022.0
20220628155521 26 344 3.2 0.0 0.00 0.00 0.10 82 1021.9
20220628155004 26 329 3.2 0.0 0.00 0.00 0.10 83 1021.8
20220628154510 26 69 3.2 0.0 0.00 0.00 0.10 86 1021.8
20220628154013 25 53 1.6 0.0 0.00 0.00 0.10 86 1021.7
20220628153515 25 342 1.6 0.0 0.00 0.00 0.10 87 1021.8
20220628153102 25 24 1.6 0.0 0.00 0.00 0.10 87 1021.8
20220628152505 24 332 1.6 0.0 0.00 0.00 0.10 88 1021.9
20220628152002 24 5 3.2 0.0 0.00 0.00 0.10 88 1021.9
20220628151503 24 22 3.2 0.0 0.00 0.00 0.10 88 1022.0
20220628151011 24 355 3.2 0.0 0.00 0.00 0.10 88 1021.9
20220628150508 24 51 1.6 0.0 0.00 0.00 0.10 88 1021.9
20220628150016 24 55 1.6 0.0 0.00 0.00 0.10 88 1021.9
20220628145519 24 342 3.2 0.0 0.00 0.00 0.10 88 1021.8
20220628145018 24 52 3.2 0.0 0.00 0.00 0.10 88 1021.8
20220628144502 23 5 3.2 0.0 0.00 0.00 0.10 89 1021.8
20220628144008 23 32 3.2 0.0 0.00 0.00 0.10 89 1021.7
20220628143514 23 5 1.6 0.0 0.00 0.00 0.10 90 1021.6
20220628143107 23 22 3.2 0.0 0.00 0.00 0.10 90 1021.6
20220628142607 23 342 3.2 0.0 0.00 0.00 0.10 91 1021.6
20220628142107 23 48 3.2 0.0 0.00 0.00 0.10 91 1021.5
20220628141503 23 5 1.6 0.0 0.00 0.00 0.10 92 1021.5
20220628141000 23 351 1.6 0.0 0.00 0.00 0.10 93 1021.4
20220628140504 23 344 0.0 0.0 0.00 0.00 0.10 93 1021.4
20220628140023 23 360 0.0 0.0 0.00 0.00 0.10 93 1021.4
20220628135601 22 360 0.0 0.0 0.00 0.00 0.10 93 1021.5
20220628135104 22 360 0.0 0.0 0.00 0.00 0.10 93 1021.4
20220628134505 22 38 0.0 0.0 0.00 0.00 0.10 93 1021.3
20220628134005 22 38 1.6 0.0 0.00 0.00 0.10 93 1021.2
20220628133514 22 21 1.6 0.0 0.00 0.00 0.10 93 1021.2
20220628133104 22 14 1.6 0.0 0.00 0.00 0.10 93 1021.2
20220628132505 22 59 1.6 0.0 0.00 0.00 0.10 94 1021.1
20220628132011 22 63 3.2 0.0 0.00 0.00 0.10 93 1021.0
20220628131606 22 338 3.2 0.0 0.00 0.00 0.10 93 1021.0
20220628131005 22 339 1.6 0.0 0.00 0.00 0.10 94 1021.0
20220628130507 22 355 1.6 0.0 0.00 0.00 0.10 94 1021.0
20220628130013 22 30 1.6 0.0 0.00 0.00 0.10 94 1020.9
20220628125519 22 335 1.6 0.0 0.00 0.00 0.10 94 1020.8
20220628125003 22 33 0.0 0.0 0.00 0.00 0.10 94 1020.7
20220628124506 22 34 0.0 0.0 0.00 0.00 0.10 94 1020.6
20220628124012 22 34 1.6 0.0 0.00 0.00 0.10 94 1020.6
20220628123606 22 34 1.6 0.0 0.00 0.00 0.10 94 1020.5
20220628123106 22 32 1.6 0.0 0.00 0.00 0.10 94 1020.3
20220628122507 22 23 1.6 0.0 0.00 0.00 0.10 94 1020.2
20220628122101 22 22 0.0 0.0 0.00 0.00 0.10 94 1020.1
20220628121514 22 12 0.0 0.0 0.00 0.00 0.10 94 1020.0
20220628121105 22 5 0.0 0.0 0.00 0.00 0.10 94 1020.0
20220628120511 22 5 0.0 0.0 0.00 0.00 0.10 94 1020.0
20220628120106 22 5 0.0 0.0 0.00 0.00 0.10 94 1020.0
20220628115509 21 5 0.0 0.0 0.00 0.00 0.10 94 1019.9
20220628115107 21 5 0.0 0.0 0.00 0.00 0.10 94 1019.9
20220628114552 21 5 0.0 0.0 0.00 0.00 0.10 94 1019.7
20220628114058 21 5 0.0 0.0 0.00 0.00 0.10 94 1019.7
20220628113605 21 5 0.0 0.0 0.00 0.00 0.10 94 1019.7
20220628113013 21 5 0.0 0.0 0.00 0.00 0.10 94 1019.8
20220628112602 21 5 0.0 0.0 0.00 0.00 0.10 94 1019.7
20220628112047 21 5 0.0 0.0 0.00 0.00 0.10 94 1019.6
20220628111557 21 5 0.0 0.0 0.00 0.00 0.10 94 1019.7
20220628111059 21 5 0.0 0.0 0.00 0.00 0.10 94 1019.6
20220628110606 21 5 0.0 0.0 0.00 0.00 0.10 94 1019.6
20220628110055 21 5 0.0 0.0 0.00 0.00 0.10 94 1019.4
20220628105559 21 5 0.0 0.0 0.00 0.00 0.10 94 1019.4
20220628105006 21 5 0.0 0.0 0.00 0.00 0.10 94 1019.5
20220628104556 21 5 0.0 0.0 0.00 0.00 0.10 94 1019.4
20220628104108 22 5 0.0 0.0 0.00 0.00 0.10 94 1019.4
20220628103552 22 360 1.6 0.0 0.00 0.00 0.10 94 1019.4
20220628103100 22 5 1.6 0.0 0.00 0.00 0.10 94 1019.4
20220628102604 22 55 0.0 0.0 0.00 0.00 0.10 94 1019.4
20220628102052 21 55 0.0 0.0 0.00 0.00 0.10 94 1019.4
20220628101603 21 55 0.0 0.0 0.00 0.00 0.10 94 1019.4
20220628101053 21 55 1.6 0.0 0.00 0.00 0.10 94 1019.4
20220628100539 21 55 1.6 0.0 0.00 0.00 0.10 94 1019.4
20220628100053 21 44 1.6 0.0 0.00 0.00 0.10 94 1019.5
20220628095555 22 304 0.0 0.0 0.00 0.00 0.10 94 1019.5
20220628095058 22 304 1.6 0.0 0.00 0.00 0.10 94 1019.4
20220628094502 22 304 1.6 0.0 0.00 0.00 0.10 94 1019.4
20220628094006 22 304 0.0 0.0 0.00 0.00 0.10 94 1019.3
20220628093506 22 304 0.0 0.0 0.00 0.00 0.10 94 1019.3
20220628093016 22 304 0.0 0.0 0.00 0.00 0.10 94 1019.3
20220628092606 22 304 0.0 0.0 0.00 0.00 0.10 94 1019.2
20220628092010 22 304 0.0 0.0 0.00 0.00 0.10 94 1019.2
20220628091516 22 304 0.0 0.0 0.00 0.00 0.10 94 1019.2
20220628091105 22 304 0.0 0.0 0.00 0.00 0.10 94 1019.3
20220628090505 22 304 0.0 0.0 0.00 0.00 0.10 94 1019.4
20220628090011 22 304 0.0 0.0 0.00 0.00 0.10 94 1019.5
20220628085509 22 304 0.0 0.0 0.00 0.00 0.10 93 1019.6
20220628085007 22 304 0.0 0.0 0.00 0.00 0.10 93 1019.7
20220628084517 22 304 0.0 0.0 0.00 0.00 0.10 93 1019.8
20220628084105 22 304 0.0 0.0 0.00 0.00 0.10 93 1019.9
20220628083504 22 304 0.0 0.0 0.00 0.00 0.10 93 1019.9
20220628083013 22 304 0.0 0.0 0.00 0.00 0.10 93 1020.0
20220628082604 22 304 0.0 0.0 0.00 0.00 0.10 93 1020.0
20220628082010 22 304 1.6 0.0 0.00 0.00 0.10 93 1020.1
20220628081601 22 302 3.2 0.0 0.00 0.00 0.10 94 1020.1
20220628081105 22 284 3.2 0.0 0.00 0.00 0.10 94 1020.0
20220628080503 22 286 3.2 0.0 0.00 0.00 0.10 94 1020.1
20220628080006 22 304 3.2 0.0 0.00 0.00 0.10 94 1020.1
20220628075504 22 313 3.2 0.0 0.00 0.00 0.10 94 1020.2
20220628075009 22 325 3.2 0.0 0.00 0.00 0.10 94 1020.3
20220628074559 22 337 4.8 0.0 0.00 0.00 0.10 94 1020.3
20220628074004 22 298 6.4 0.0 0.00 0.00 0.10 94 1020.3
20220628073507 22 325 6.4 0.0 0.00 0.00 0.10 94 1020.4
20220628073101 22 328 6.4 0.0 0.00 0.00 0.10 94 1020.3
20220628072512 22 290 6.4 0.0 0.00 0.00 0.10 94 1020.5
20220628072106 22 315 6.4 0.0 0.00 0.00 0.10 94 1020.5
20220628071557 22 336 8.0 0.0 0.00 0.00 0.10 94 1020.6
20220628071100 22 336 8.0 0.0 0.00 0.00 0.10 94 1020.8
20220628070503 22 336 6.4 0.0 0.00 0.00 0.10 94 1020.8
20220628070057 22 315 6.4 0.0 0.00 0.00 0.10 93 1020.7
20220628065503 22 323 6.4 0.0 0.00 0.00 0.10 93 1020.6
20220628065057 22 285 6.4 0.0 0.00 0.00 0.10 93 1020.6
20220628064544 22 291 6.4 0.0 0.00 0.00 0.10 93 1020.6
20220628064045 22 292 6.4 0.0 0.00 0.00 0.10 93 1020.5
20220628063554 22 319 6.4 0.0 0.00 0.00 0.10 94 1020.4
20220628063055 22 304 4.8 0.0 0.00 0.00 0.10 94 1020.4
20220628062557 22 323 3.2 0.0 0.00 0.00 0.10 93 1020.6
20220628062007 21 298 1.6 0.0 0.00 0.00 0.10 93 1020.8
20220628061601 21 290 1.6 0.0 0.00 0.00 0.10 93 1020.8
20220628061008 21 290 3.2 0.0 0.00 0.00 0.10 93 1020.7
20220628060513 21 284 4.8 0.0 0.00 0.00 0.10 93 1020.6
20220628060021 21 287 4.8 0.0 0.00 0.00 0.10 93 1020.5
20220628055515 22 289 4.8 0.0 0.00 0.00 0.10 94 1020.6
20220628055014 22 296 4.8 0.0 0.00 0.00 0.08 94 1020.6
20220628054515 22 305 3.2 0.0 0.00 0.00 0.08 94 1020.7
20220628054105 22 323 3.2 0.0 0.00 0.00 0.08 94 1020.8
20220628053501 22 331 3.2 0.0 0.00 0.00 0.08 93 1021.0
20220628053008 22 296 3.2 0.0 0.00 0.00 0.05 93 1021.0
20220628052600 22 284 4.8 0.0 0.00 0.00 0.05 93 1021.1
20220628052106 22 293 3.2 0.0 0.00 0.00 0.05 93 1021.1
20220628051507 22 282 1.6 0.0 0.00 0.00 0.03 93 1021.3
20220628051014 22 282 1.6 0.0 0.00 0.00 0.03 93 1021.3
20220628050605 22 282 1.6 0.0 0.00 0.00 0.00 93 1021.3
20220628050008 22 300 3.2 0.0 0.00 0.00 0.89 93 1021.5
20220628045508 22 309 3.2 0.0 0.00 0.00 0.86 93 1021.6
20220628045013 22 293 1.6 0.0 0.00 0.00 0.86 93 1021.7
20220628044526 22 290 1.6 0.0 0.00 0.00 0.84 93 1021.6
20220628044023 22 290 3.2 0.0 0.00 0.00 0.84 93 1021.6
20220628043526 22 265 1.6 0.0 0.00 0.00 0.81 93 1021.5
20220628043030 22 265 1.6 0.0 0.00 0.00 0.81 93 1021.4
20220628042533 22 265 3.2 0.0 0.00 0.00 0.79 93 1021.2
20220628042041 22 265 3.2 0.0 0.00 0.00 0.79 93 1021.1